STARLINK-32272, 60735

Orbit data source: Space-Track

STARLINK-32272, 60735 is a payload satellite owned by SpaceX/Seattle (US) in LEO that was launched on Wed, 28 Aug 2024 UTC via an FALCON 9 launch vehicle from the Air Force Eastern Test Range (AFETR). Payload-class satellites include a variety of spacecraft equipped with specific instruments for various scientific and technological missions. These include communications satellites like Starlink; space stations such as the ISS; scientific satellites like the Hubble; Earth observation satellites from companies like Planet Labs, Umbra, and HawkEye 360; GPS; miniature CubeSats for education and research; and military/defense satellites.

Loading next visibility...
Identifier
60735, 2024-152R
Orbit
LEO
Country
Flag of USUS
Related business
Manufacturer
SpaceX/Seattle
Mission
Operational spacecraft
Bus & Motor
STARLINK V2M, Unknown motor
Mass
730 kg wet, ~700 kg dry
Launch date (UTC)
2024-08-28 (1 year ago)
Launch vehicle
FALCON 9
Launch site
Air Force Eastern Test Range (AFETR)
Object type
Payload
Rocket body
Debris
Shape & HBR
Unknown shape, 17.7 m
Radar Cross Section
Large (>1 m²)

Expand to show TLE details & history
Last TLE update: 12 hours ago

TLE from 12 hours ago
0 STARLINK-32272
1 60735U 24152R   25354.05224909  .00036729  00000-0  12048-2 0  9999
2 60735  53.1627 277.9474 0002250 131.9085 228.2109 15.31288323 74622
Epoch: 2025-12-20T01:15Z
TLE epoch observation values (Epoch: 2025-12-20T01:15:14.321Z)
Latitude
0.00003°
Longitude
170.25316°
Altitude
473.895 km
Speed
7.63 km/s
True Right ascension
18h 31m 47s
True Declination
0° 00' 00"
Sunlit
Object was in daylight at epoch
Visualization orbit readout
Latitude
Unknown
Longitude
Unknown
Altitude
Unknown
Speed
Unknown
Apparent Right ascension
Unknown
Apparent Declination
Unknown
Sunlit
N/A
Visualization observer readout
Local Sidereal Time
12:03:55
Azimuth
Unknown
Elevation
Unknown
Doppler factor
Unknown
Orbital elements
Apogee altitude
473.765 km
Perigee altitude
470.682 km
Semi-major axis
6,850.361 km
Eccentricity
0.00023
Inclination
53.1627°
RAAN
277.9474°
Arg. of periapsis
131.9085°
True anomaly
228.19168°
Mean anomaly
228.2109°
Eccentric anomaly
228.20129°
Mean motion
3.82801 °/min
Orbital period
94.04 mins
BSTAR
0.0012048
Loading maneuver chart data...
Computing Atmospheric mass density...
Loading historical data...
Loading historical data...
Loading historical data...
Loading historical data...
Loading historical data...
Loading historical data...
Loading historical data...

Documentation

Showing up to 5 results
|